042  
ASUS42 KMHX 201225  
RWRMHX  
WEATHER ROUNDUP FOR EASTERN NORTH CAROLINA  
NATIONAL WEATHER SERVICE NEWPORT/MOREHEAD CITY NC  
800 AM EDT SAT APR 20 2019  
 
NOTE: "FAIR" INDICATES FEW OR NO CLOUDS BELOW 12,000 FEET  
WITH NO SIGNIFICANT WEATHER AND/OR S TO VISIBILITY
 
 
NCZ015>017-031-032-045>047-102-103-201300-  
NORTH COAST  
 
CITY SKY/WX TMP DP RH WIND PRES REMARKS
 
EDENTON FAIR 65 56 72 SW13G18 29.73R  
ELIZABETH CITY PTSUNNY 65 60 84 SW15G21 29.71R  
KITTY HAWK CLOUDY 64 63 96 SW9 29.71R  
MANTEO CLOUDY 65 62 90 SW15G21 29.73R  
 

 
 
NCZ045>047-081-094-103-104-201300-  
CENTRAL COAST  
 
CITY SKY/WX TMP DP RH WIND PRES REMARKS
 
FRISCO RAIN 66 63 90 SW14G22 29.78R FOG  
 

 
 
NCZ095-097-098-100-101-201300-  
SOUTHERN COAST  
 
CITY SKY/WX TMP DP RH WIND PRES REMARKS
 
BEAUFORT FAIR 64 50 60 SW16G25 29.78R  
CEDAR ISLAND NOT AVBL  
JACKSONVILLE FAIR 58 49 72 SW7 29.77R  
PINEY ISLAND FAIR 61 51 70 SW10 29.76R  
WILMINGTON FAIR 58 48 69 SW12 29.80R  
 

 
 
NCZ011>013-027>030-043-044-078>080-089-090>093-098-201300-  
COASTAL PLAIN  
 
CITY SKY/WX TMP DP RH WIND PRES REMARKS
 
AHOSKIE FAIR 57 52 83 S7 29.70R  
CLINTON FAIR 55 50 85 SW6 29.76R  
ELIZABETHTOWN FAIR 56 47 73 SW14G20 29.76R  
GOLDSBORO FAIR 57 49 77 SW10 29.72R  
GREENVILLE FAIR 59 50 72 SW9G17 29.76R  
HAVELOCK FAIR 60 53 77 SW12 29.77R  
KENANSVILLE FAIR 55 50 82 SW6 29.76R  
KINSTON SUNNY 57 52 82 SW8 29.75R  
NEW BERN FAIR 59 52 77 SW7 29.76R  
RICHLANDS FAIR 56 52 86 SW9 29.77R  
ROCKY MOUNT FAIR 56 51 84 SW10 29.71R  
WASHINGTON FAIR 59 51 76 S7 29.74R  
WHITEVILLE FAIR 57 47 71 SW12 29.77R  
 

 
 
AMZ130-135-150-152-154-156-158-170-250-252-270-ANZ085-086-088-633-658-670-201300-  
MARINE OBSERVATIONS  
 
STATION/POSITION TIME TEMP WIND PRES WAVE SWELL
 
AIR SEA DIR/SP/G HT/PER HT/PER  
(UTC) (F) (DEG/KT/KT) (MB) (FT/S) (FT/S)  
64 E VA BEACH 1150 58 54 180/ 14/ 17 1006.7 14/11 13/11  
DUCK 1200 65 54 190/ 15/ 20 1005.6  
2 E DUCK 1200 53 N/A 6/10 3/11  
10 NE DUCK NOT AVBL  
OREGON INLET 1154 67 70 190/ 19/ 23 1006.4  
13E OREGON INLT 1146 70 N/A 13/10 11/10  
HATTERAS CG 1200 67 69 220/ 13/ 19 1007.8  
DIAMOND BUOY NOT AVBL  
CAPE LOOKOUT 1200 64 240/ 13/ 19 1008.8  
BEAUFORT LAB 1200 63 69 240/ 9/ 14 1009.0  
30 SE NEW RVR IN 1208 64 65 270/ 19/ 25 1008.2  
30 SE NEW RVR IN 1200 65 N/A 11/10 5/11  
27 SE WRIGHTSVLE 1208 65 68 250/ 23/ 29 1008.2  
5 SE WRIGHTSVLE 1208 61 65 250/ 17/ 21 1008.5  
27 SE WRIGHTSVL 1208 65 68 250/ 23/ 29 1008.2  
FRYING PAN BUOY 1210 63 220/ 19/ 23 1009.7  
225 S CAPE HAT 1210 170/ 25/ 33 1012.6  
41 SE CHARLESTON 1210 63 72 250/ 21/ 29 1010.3  
 

 
 
 
CLICK HERE TO GO TO PREVIOUS BULLETINS.

The Nexlab NC Page Main Text Page